User: anonymous   Login
Location: *
(49.7115°N, 15.0136°E)
Time: 17:12:16
(UTC+00:00)
Language:

ATLAS 3B R/B - Orbit

View from above orbital plane
View from above orbital plane
View from above satellite
View from above satellite

Ground track
Ground track

The orbit data is extracted from the following two-line orbital elements,

1 28538U 05004B   20150.89200690 0.00000000  00000-0  00000-0 0    00
2 28538  63.8303 100.2287 0098479  51.5876 308.4124 13.43132821    00
Epoch (UTC): 29 May 2020 21:24:29
Eccentricity: 0.0098479
inclination: 63.8303°
perigee height: 1024 km
apogee height: 1171 km
right ascension of ascending node: 100.2287°
argument of perigee: 51.5876°
revolutions per day: 13.43132821
mean anomaly at epoch: 308.4124°
orbit number at epoch: 0

The dashed part of the orbit path shows where the satellite is in the earth's shadow,  

DLR